Location: ????????
(56.1167°N, 38.6333°E)
Time: 19:57:04
(UTC+00:00)

SL-16 R/B - Pass Details

Date: 18 November 2025
Orbit: 985 x 1006 km, 99.8° (Epoch: 14 December)

Event Time Altitude Azimuth Distance (km) Brightness Sun altitude
Rises 14:56:44 0° 17° (NNE) 3,751 5.3 -14.1°
Reaches altitude 10° 14:59:14 10° 15° (NNE) 2,796 4.6 -14.4°
Maximum altitude 15:05:27 67° 295° (WNW) 1,090 2.9 -15.3°
Drops below altitude 10° 15:11:38 10° 215° (SW) 2,772 5.5 -16.1°
Sets 15:14:06 0° 212° (SSW) 3,716 6.2 -16.5°
